RH
6 6 6 6 5 5 5 5 5 5 5 5 5 5 5 5 4 4 4 4 4 4 4 4 4 4 4 4 4 4 4 4 4 4 4 4 4 4 4 3 3 3 4 4 4 4 4 4 5 5 6 7 8 9 10 10 10 10 10 10 11 12 14 16 17 18 20 24 31 40 50 60 66 71 72 72 71 70 68 65 61 57 52 51 52 54 55 54 52 50 51 53 54 56 60 64 65 63 58 54 50 48 46
5 5 5 5 5 5 5 4 4 4 4 4 4 4 4 4 4 4 4 4 4 4 4 4 4 4 4 4 4 4 4 4 4 3 3 3 3 3 3 3 3 3 3 3 3 4 4 4 4 4 4 5 6 8 8 10 10 10 10 10 10 11 12 14 16 17 18 20 24 30 39 50 59 66 71 72 72 71 70 68 65 61 57 54 54 54 54 52 50 48 48 51 53 55 56 60 64 65 62 58 53 50 48
4 4 4 4 4 4 4 4 4 4 4 4 4 4 4 4 4 4 4 4 4 4 4 4 4 4 4 4 4 4 4 4 4 3 3 3 3 3 3 3 3 3 3 3 3 3 3 3 4 4 4 4 5 6 7 8 9 10 10 10 10 10 11 12 14 15 16 18 19 23 29 39 49 58 67 70 71 71 70 69 68 66 62 60 57 56 56 54 52 49 47 49 52 54 55 57 60 63 65 62 58 54 50
4 4 4 4 4 4 4 4 4 3 3 3 3 3 3 3 3 3 3 3 3 3 3 3 3 4 4 4 4 4 4 4 4 4 3 3 3 2 3 3 3 3 3 3 2 3 3 3 3 3 3 4 4 4 5 6 8 9 10 10 10 10 10 11 12 14 15 16 18 19 22 29 38 48 58 65 69 70 70 69 68 68 66 64 61 59 58 58 56 53 50 49 50 52 55 55 56 58 62 63 61 57 54
3 3 3 3 3 3 3 3 3 3 3 3 3 3 3 3 3 3 3 3 3 3 3 3 3 3 3 3 3 3 3 3 3 3 3 3 3 2 2 2 2 3 2 2 2 2 2 2 2 3 3 3 3 4 4 5 6 7 8 10 10 10 10 10 11 12 14 15 17 18 18 22 28 37 48 58 64 68 69 68 68 67 68 67 65 63 62 61 60 57 55 53 52 52 55 56 54 54 57 62 63 61 58
3 3 3 3 3 3 3 2 2 2 2 2 2 2 2 2 2 2 2 2 2 2 2 2 2 2 2 2 2 3 3 3 3 3 3 3 3 3 2 2 2 2 2 2 2 2 2 2 2 2 2 3 3 3 3 4 4 5 7 8 9 10 10 10 10 11 12 14 16 17 18 18 22 28 37 47 56 63 67 67 67 66 67 68 67 66 66 65 63 60 58 57 56 55 56 56 55 54 54 60 63 64 63
3 3 3 2 2 2 2 2 2 2 2 2 2 2 2 2 2 2 2 2 2 2 2 2 2 2 2 2 2 2 2 2 2 2 2 2 3 2 2 2 2 2 2 2 2 2 2 2 2 2 2 2 2 2 3 3 3 4 5 6 8 9 10 10 10 10 11 12 14 16 17 18 18 21 26 36 46 55 62 65 66 66 66 67 68 68 69 68 66 63 60 59 58 58 58 58 56 54 54 57 61 64 66
2 2 2 2 2 2 2 2 2 2 2 2 2 2 2 2 2 2 2 2 2 2 2 2 2 2 2 2 2 2 2 2 2 2 2 2 2 2 2 2 2 2 2 2 2 2 2 2 2 2 2 2 2 2 2 2 3 3 3 4 6 8 8 10 10 10 10 11 13 14 16 17 17 18 20 27 36 45 54 61 64 66 66 66 66 68 69 69 67 64 61 60 61 62 61 60 58 56 53 56 60 64 66
2 2 2 2 2 2 2 2 2 2 2 2 2 2 2 2 2 2 2 2 2 2 2 2 2 2 2 2 2 2 2 2 2 2 2 2 2 2 2 2 2 2 2 2 2 2 2 2 2 2 2 2 2 2 2 2 2 2 2 3 4 6 7 8 10 10 10 11 12 13 14 16 17 17 18 21 27 35 44 54 60 64 66 65 65 66 68 68 67 64 62 62 63 64 63 62 60 58 54 55 59 63 67
2 2 2 2 2 2 2 2 2 2 2 2 2 2 2 2 2 2 2 2 2 2 2 2 2 2 2 2 2 2 2 2 2 2 2 2 2 2 2 2 2 2 2 2 2 2 2 2 2 2 2 1 1 1 2 2 2 2 2 2 3 4 5 7 8 9 10 10 11 12 13 14 16 16 17 18 21 26 34 44 53 60 65 65 64 64 66 67 66 64 62 63 65 66 66 65 63 61 57 55 57 60 66
2 2 2 2 2 2 2 2 2 2 2 2 2 2 2 1 1 1 1 1 1 1 1 1 1 1 1 1 1 1 1 1 1 1 1 1 1 1 2 2 2 2 2 2 2 1 1 1 2 2 2 1 1 1 1 1 2 2 2 2 2 3 3 5 6 8 9 10 10 11 12 13 14 15 16 17 18 21 26 34 44 54 61 64 64 64 64 65 64 63 62 64 66 68 69 68 66 64 60 56 56 58 63
2 2 2 2 2 2 2 2 2 2 2 2 2 2 1 1 1 1 1 1 1 1 1 1 1 1 1 1 1 1 1 1 1 1 1 1 1 1 1 1 1 2 2 2 2 1 1 1 1 1 2 1 1 1 1 1 1 1 2 2 2 2 2 3 4 6 8 8 10 10 11 12 13 14 16 17 18 19 21 26 35 44 54 60 63 64 63 63 63 62 61 64 67 70 71 70 70 68 64 59 56 56 60
2 2 2 2 2 2 2 2 2 2 2 2 1 1 1 1 1 1 1 1 1 1 1 1 1 1 1 1 1 1 1 1 1 1 1 1 1 1 1 1 1 1 1 1 1 1 1 1 1 1 1 1 1 1 1 1 1 1 1 1 2 2 2 2 3 4 6 8 8 10 10 11 12 13 14 16 17 18 19 22 27 36 45 54 60 63 63 62 62 61 61 63 66 70 72 73 73 72 68 62 57 54 57
2 2 2 2 2 2 1 1 1 1 1 1 1 1 1 1 1 1 1 1 1 1 1 1 1 1 1 1 1 1 1 1 1 1 1 1 1 1 1 1 1 1 1 1 1 1 1 1 1 1 1 1 1 1 1 1 1 1 1 1 1 2 2 2 2 3 4 6 7 8 10 10 12 12 13 15 16 17 18 19 22 28 36 46 54 60 63 62 61 60 60 62 65 68 71 73 74 74 72 65 59 55 54
2 1 1 1 1 1 1 1 1 1 1 1 1 1 1 1 1 1 1 1 1 1 1 1 1 1 1 1 1 1 1 1 1 1 1 1 1 1 1 1 1 1 1 1 1 1 1 1 1 1 1 1 1 1 1 1 1 1 1 1 1 1 1 2 2 2 2 4 5 7 8 10 11 12 13 14 15 16 18 18 20 23 28 37 47 56 62 62 62 60 60 61 64 66 69 72 75 76 76 69 62 57 54
1 1 1 1 1 1 1 1 1 1 1 1 1 1 1 1 1 1 1 1 1 1 1 1 1 1 1 1 1 1 1 1 1 1 1 1 1 1 1 1 1 1 1 1 1 1 1 1 1 1 1 1 1 1 1 1 1 1 1 1 1 1 1 1 1 2 2 2 4 5 7 8 10 11 12 13 14 16 17 18 19 20 23 30 39 49 58 62 63 62 60 61 62 64 66 70 74 77 78 73 67 61 56
1 1 1 1 1 1 1 1 1 1 1 1 1 1 1 1 1 1 1 1 1 1 1 1 1 1 1 1 1 1 1 1 1 1 1 1 1 1 1 1 1 1 1 1 1 1 1 1 1 1 1 1 1 1 1 1 1 1 1 1 1 1 1 1 1 1 2 2 2 3 5 7 8 10 12 13 14 15 16 18 18 19 20 24 32 42 52 60 63 63 61 61 61 62 64 68 72 76 78 76 72 66 60
1 1 1 1 2 2 2 2 2 2 2 2 1 1 1 1 1 1 1 1 1 1 1 1 1 1 1 1 1 1 1 1 1 1 1 1 1 1 1 1 1 1 1 1 1 1 1 1 1 1 1 1 1 1 1 1 1 1 1 1 0 0 0 1 1 1 1 2 2 2 3 5 7 8 10 12 13 14 15 17 18 19 19 21 26 34 45 56 62 64 63 61 61 62 64 66 70 74 77 78 76 71 65
2 2 2 2 2 2 2 2 2 2 2 2 2 2 2 2 2 2 2 2 1 1 1 1 1 1 1 1 1 1 1 1 1 1 1 1 1 1 1 1 1 1 1 1 1 1 1 1 1 1 1 1 1 1 1 1 1 1 1 1 0 0 0 0 0 1 1 1 1 2 2 3 5 6 8 10 12 13 14 16 17 18 19 20 23 28 38 49 58 63 64 62 61 62 63 65 68 71 74 78 78 76 71
2 2 2 2 2 2 2 2 2 2 2 2 2 2 2 2 2 2 2 2 2 2 2 2 2 1 1 1 1 1 1 1 1 1 1 1 1 1 1 1 1 1 1 1 1 1 1 1 1 1 1 1 1 1 1 1 1 0 0 0 0 0 0 0 0 0 0 1 1 1 2 2 3 4 6 8 10 12 14 15 16 18 19 20 21 24 31 42 53 60 64 64 62 62 63 65 67 70 72 76 78 78 76
2 2 2 2 2 2 2 2 2 2 2 2 2 2 2 2 2 2 2 2 2 2 2 2 2 2 2 2 1 1 1 1 1 1 1 1 1 1 1 1 1 1 1 1 1 1 1 1 1 1 1 1 0 0 1 1 0 0 0 0 0 0 0 0 0 0 0 0 1 1 1 2 2 3 4 6 8 10 12 14 16 18 18 19 20 22 26 36 46 56 63 64 64 63 63 64 66 68 70 73 76 78 79
2 2 2 2 2 2 2 2 2 2 2 2 3 3 3 3 3 3 3 3 2 2 2 2 2 2 2 2 2 2 2 1 1 1 1 1 1 1 1 1 1 1 1 1 1 1 1 1 1 1 1 1 0 0 0 0 0 0 0 0 0 0 0 0 0 0 0 0 0 1 1 1 2 2 3 4 6 8 11 13 15 17 18 19 20 21 24 31 40 51 60 64 65 64 64 64 66 67 68 71 74 77 80
2 2 2 2 2 2 2 2 2 3 3 3 3 3 3 3 3 3 3 3 3 3 3 3 3 3 3 2 2 2 2 2 2 2 1 1 1 1 1 1 1 1 1 1 1 1 1 1 1 1 1 1 1 0 0 0 0 0 0 0 0 0 0 0 0 0 0 0 0 0 1 1 1 2 2 3 4 6 8 11 14 16 18 19 20 20 22 27 35 44 55 62 66 66 64 64 65 66 68 70 72 76 79
2 2 2 2 3 3 3 3 3 3 3 3 3 3 3 3 3 3 4 4 4 4 3 3 3 3 3 3 3 3 2 2 2 2 2 2 2 1 1 1 1 1 1 1 1 1 1 1 1 1 1 1 1 1 0 0 0 0 0 0 0 0 0 0 0 0 0 0 0 0 0 0 1 1 1 2 3 4 6 9 12 14 17 18 20 20 21 24 30 38 48 58 65 67 66 64 64 65 67 69 72 75 78
3 3 3 3 3 3 3 3 3 3 3 4 4 4 4 4 4 4 4 4 4 4 4 4 4 4 4 4 4 4 4 3 3 3 2 2 2 2 2 2 2 1 1 1 1 1 1 1 1 1 1 1 1 1 1 1 0 0 0 0 0 0 0 0 0 0 0 0 0 0 0 0 0 1 1 1 2 3 4 6 9 12 16 18 20 21 21 23 26 32 41 52 61 66 68 65 64 64 66 69 72 76 78
3 3 3 3 4 4 4 4 4 4 4 4 4 4 4 5 5 5 5 5 5 5 5 5 5 5 5 5 5 5 5 4 4 4 3 3 3 2 2 2 2 2 2 2 2 2 1 1 1 1 1 1 1 1 1 1 1 0 0 0 0 0 0 0 0 0 0 0 0 0 0 0 0 0 1 1 1 2 3 4 7 10 13 16 19 21 22 22 24 28 34 44 55 64 68 66 64 63 64 68 72 76 78
4 4 4 4 4 4 4 4 4 5 5 5 5 5 6 6 6 6 6 6 6 6 6 6 6 6 6 6 6 6 6 6 6 5 4 4 4 3 3 2 2 2 2 2 2 2 2 2 2 1 1 1 1 1 1 1 1 1 1 1 0 0 1 1 1 1 1 0 0 0 0 0 0 0 0 1 1 1 2 3 4 7 10 14 17 20 22 22 23 25 29 37 48 58 66 67 65 63 62 66 71 75 78
4 4 4 4 5 5 5 5 6 6 6 6 6 6 7 7 7 7 7 7 8 8 8 7 7 7 7 7 7 7 7 7 7 7 6 6 5 4 4 3 3 3 3 3 2 2 2 2 2 2 2 2 1 1 1 1 1 1 1 1 1 1 1 1 1 1 1 1 1 0 0 0 0 0 0 0 1 1 1 2 3 4 7 11 15 18 21 22 23 24 26 31 40 51 61 66 66 64 62 64 68 73 76
5 5 5 5 6 6 6 6 6 7 7 7 8 8 8 8 8 8 8 8 8 8 8 8 8 8 8 8 8 8 8 8 8 8 8 7 7 6 5 4 4 4 4 4 3 3 3 2 2 2 2 2 2 2 1 1 1 1 1 1 1 1 1 1 1 1 1 1 1 1 0 0 0 0 0 0 0 1 1 1 2 3 5 8 12 16 20 22 23 24 24 27 33 42 54 62 65 65 63 62 65 69 74
6 6 6 6 6 7 7 7 8 8 8 8 8 8 8 9 9 9 9 9 9 10 10 10 10 10 9 8 8 8 8 10 10 10 10 9 8 8 7 6 5 5 4 4 4 4 4 3 3 3 2 2 2 2 2 2 2 1 1 1 1 1 1 1 1 1 1 1 1 1 1 1 0 0 0 0 0 0 1 1 1 2 3 5 8 12 17 20 23 24 25 26 28 34 44 55 62 65 64 62 62 65 70
6 7 7 7 8 8 8 8 8 8 9 9 9 9 9 9 9 9 9 10 10 10 10 10 10 10 10 10 10 10 10 10 10 10 10 10 10 9 8 8 7 6 6 5 5 5 4 4 4 4 3 3 3 2 2 2 2 2 2 1 1 1 1 1 1 1 1 1 1 1 1 1 1 0 0 0 0 0 0 1 1 1 2 3 6 9 14 18 22 24 26 25 26 28 35 46 56 62 65 63 62 62 65
7 8 8 8 8 8 9 9 9 10 10 10 9 9 9 9 9 8 9 9 9 9 10 10 10 10 10 10 10 10 10 10 10 11 11 12 11 11 10 9 8 8 7 6 6 6 5 5 5 4 4 4 4 3 3 2 2 2 2 2 2 2 1 1 1 1 1 1 1 1 1 1 1 1 0 0 0 0 0 0 1 1 1 2 4 6 10 15 20 24 26 26 25 26 29 38 48 57 63 64 62 60 61
8 8 8 9 9 10 10 10 10 9 9 9 8 8 8 8 8 8 8 8 8 8 8 9 9 10 10 10 10 10 11 11 11 11 12 12 12 12 11 10 10 8 8 8 7 6 6 6 6 5 5 5 4 4 4 3 3 2 2 2 2 2 2 2 1 1 1 1 1 1 1 1 1 1 1 1 0 0 0 0 1 1 1 2 2 4 6 11 16 22 26 26 26 25 26 32 40 50 59 63 63 61 59
8 9 9 10 10 10 10 9 9 8 8 8 8 8 8 8 8 8 8 8 8 8 8 8 8 8 9 10 10 10 10 11 11 12 12 13 13 13 13 12 11 10 9 8 8 7 7 7 6 6 6 6 5 5 4 4 4 3 3 2 2 2 2 2 2 2 1 1 1 1 1 1 1 1 1 1 1 0 0 0 0 1 1 1 2 2 4 8 12 18 24 26 26 26 26 29 35 43 53 60 64 63 60
9 10 10 10 10 10 9 8 8 8 8 8 8 8 8 8 8 8 7 7 7 7 7 8 8 8 8 8 8 10 10 10 11 12 12 13 14 14 14 13 12 11 10 9 8 8 8 8 7 7 7 7 6 6 6 5 4 4 3 3 3 3 2 2 2 2 2 2 1 1 1 1 1 1 1 1 1 1 0 0 0 0 1 1 1 2 2 4 8 14 20 25 27 28 27 28 32 38 47 57 63 65 63
10 10 10 10 10 9 8 8 8 8 8 8 8 8 8 8 7 7 7 7 7 7 7 7 7 7 7 7 8 8 8 10 10 11 12 12 14 14 15 15 14 12 11 10 9 8 8 8 8 8 8 7 7 7 6 6 5 5 4 4 4 3 3 3 2 2 2 2 2 2 1 1 1 1 1 1 1 1 0 0 0 0 0 1 1 1 2 2 6 10 16 22 26 28 29 29 31 35 42 52 60 66 67
10 10 10 10 9 8 8 8 8 8 8 8 8 8 8 7 7 7 7 6 6 6 6 6 6 6 6 6 7 7 8 8 8 10 10 12 12 14 15 16 15 14 12 11 10 10 9 8 8 8 8 8 8 7 7 6 6 6 5 5 4 4 4 3 3 3 2 2 2 2 2 2 2 1 1 1 1 1 1 1 0 0 0 0 1 1 1 2 3 6 11 17 23 27 30 30 32 34 37 46 56 64 70
10 10 10 10 9 8 8 8 8 8 8 8 8 8 8 7 7 7 7 7 7 7 7 7 7 7 7 7 7 7 7 7 8 8 8 10 11 12 14 15 16 16 14 12 11 10 10 9 9 9 8 8 8 8 8 7 7 6 6 6 5 4 4 4 4 3 3 3 2 2 2 2 2 2 1 1 1 1 1 1 1 0 0 0 0 1 1 1 2 4 7 12 19 24 29 32 33 33 35 40 50 60 70
10 10 10 9 8 8 8 8 8 8 8 8 8 8 8 8 8 8 8 8 9 10 10 10 10 10 10 9 8 8 8 8 8 8 8 8 9 10 12 14 15 16 16 14 12 11 10 10 10 10 9 9 8 8 8 8 7 7 6 6 6 5 5 5 4 4 4 3 3 3 2 2 2 2 2 2 2 1 1 1 1 1 0 0 0 1 1 1 1 2 4 8 14 21 28 32 34 35 35 38 45 55 67
10 10 9 8 8 8 8 8 8 8 8 8 8 8 8 8 8 8 10 11 12 14 15 16 15 14 13 12 12 11 10 10 10 9 8 8 8 8 10 11 13 15 16 16 15 12 10 10 10 10 10 10 10 9 8 8 8 8 7 7 6 6 6 5 5 5 4 4 4 3 3 2 2 2 2 2 2 2 2 1 1 1 1 0 0 0 1 1 1 1 2 5 10 16 24 31 35 38 38 38 43 52 63
10 10 9 8 8 8 8 8 9 9 10 10 9 8 8 8 8 10 11 14 16 18 20 21 21 20 18 17 16 14 13 12 12 11 10 10 8 8 8 9 10 13 15 17 16 15 12 11 10 10 10 10 10 10 10 9 8 8 8 8 7 7 6 6 6 5 5 4 4 4 3 3 2 2 2 2 2 2 2 2 1 1 1 1 0 0 0 1 1 1 1 2 6 11 19 27 34 38 40 40 42 49 60
10 10 9 9 9 9 10 10 10 10 10 10 10 9 8 8 8 10 12 16 18 21 23 24 24 24 23 21 20 18 17 15 14 13 12 11 10 10 9 8 9 10 12 16 17 17 15 12 10 10 10 10 10 10 10 10 10 9 8 8 8 7 7 6 6 6 5 5 5 4 4 3 3 2 2 2 2 2 2 2 2 1 1 1 1 1 0 0 1 1 1 2 3 7 13 22 30 37 42 42 42 46 55
10 10 10 10 10 10 10 10 11 11 11 11 10 10 8 8 9 11 14 18 21 23 26 26 27 27 26 26 24 23 21 19 18 16 15 14 12 12 11 10 10 9 10 12 16 18 17 14 12 10 10 10 10 11 10 10 10 10 9 8 8 8 8 7 6 6 6 6 5 5 4 4 3 3 3 2 2 2 2 2 2 2 1 1 1 1 1 0 1 1 1 1 2 4 8 16 25 34 40 42 43 45 50
10 10 10 10 10 11 11 12 12 12 12 11 10 10 8 10 11 14 17 21 24 26 27 29 30 30 30 30 29 28 26 24 22 20 18 17 15 14 13 12 11 10 9 10 12 16 18 17 14 12 10 10 10 11 11 11 11 10 10 9 8 8 8 7 7 6 6 6 6 5 5 4 4 4 3 3 3 2 2 2 2 2 2 1 1 1 1 1 0 1 1 1 1 2 5 11 19 28 38 42 44 46 48
10 10 10 11 12 12 13 14 14 14 13 12 10 10 10 12 14 18 22 25 27 29 31 32 33 34 35 35 34 32 30 28 26 24 22 20 18 17 16 15 14 13 11 10 10 13 17 18 17 14 11 10 11 11 12 12 12 11 10 10 9 8 8 8 7 7 7 6 6 6 5 5 4 4 4 4 3 3 3 2 2 2 2 2 1 1 1 1 0 0 1 1 1 2 2 7 13 23 33 41 46 48 49
11 11 11 12 13 14 15 16 15 14 13 12 11 12 13 16 19 23 26 28 31 33 34 36 36 37 37 36 35 33 31 29 27 25 24 23 22 21 20 19 18 16 14 12 10 10 14 18 18 16 13 11 11 12 12 12 12 12 10 10 9 8 8 8 7 7 7 7 6 6 6 5 5 4 4 4 4 3 3 3 3 2 2 2 2 1 1 1 1 0 0 1 1 1 1 4 8 16 26 38 45 50 51
12 12 13 14 16 16 17 17 16 14 13 13 13 15 17 21 24 27 30 32 34 36 37 38 38 37 36 35 33 32 30 28 28 27 26 25 24 24 24 23 22 20 19 16 12 10 10 15 18 18 16 12 11 12 13 13 13 12 11 10 10 8 8 8 7 7 7 7 6 6 6 6 5 5 5 4 4 4 3 3 3 3 2 2 2 2 1 1 1 1 0 1 1 1 1 2 5 10 20 32 42 49 53
13 14 15 16 18 18 18 17 16 14 14 15 17 19 22 25 28 30 33 36 38 39 39 38 38 36 34 32 30 29 29 29 30 31 31 29 27 26 27 27 26 24 22 20 16 12 10 12 16 19 18 14 12 12 12 12 12 12 12 10 10 9 8 8 8 7 7 7 6 6 6 6 6 6 5 5 4 4 4 3 3 3 3 2 2 2 2 1 1 1 1 0 1 1 1 1 3 6 13 24 36 45 52
14 16 17 18 19 19 18 17 16 16 17 19 22 24 26 28 30 32 35 38 39 40 39 38 36 35 34 32 31 30 31 34 37 38 38 37 35 32 30 29 28 26 24 22 18 14 10 11 14 18 18 15 13 13 14 13 12 11 11 11 10 10 8 8 8 7 7 7 7 7 6 6 6 6 5 5 4 4 4 4 3 3 3 3 2 2 2 2 1 1 1 1 1 1 1 1 2 4 8 17 28 40 48
16 18 19 20 20 20 18 17 18 19 21 24 25 26 27 28 30 33 35 38 40 40 40 38 36 35 36 36 36 36 38 42 46 47 46 46 45 42 38 34 31 28 26 23 19 15 11 10 12 16 18 17 16 16 14 12 11 11 11 10 10 10 8 8 8 8 7 7 7 7 7 6 6 6 6 5 5 4 4 4 3 3 3 3 2 2 2 2 2 1 1 1 1 1 1 1 1 2 4 11 21 32 43
18 20 22 22 21 20 18 19 21 24 26 27 27 27 27 28 30 33 35 38 40 42 42 40 38 36 38 40 42 44 46 50 54 57 58 57 54 52 48 42 36 31 27 23 20 16 11 18 35 48 43 36 26 16 11 10 10 11 10 10 10 9 9 8 8 8 7 7 7 7 7 7 6 6 6 6 5 4 4 4 4 3 3 3 3 2 2 2 2 1 1 1 1 1 1 2 2 2 2 7 14 24 36
20 22 24 23 22 20 20 22 25 28 30 29 28 26 26 27 30 33 36 39 42 43 44 43 42 41 40 43 46 48 52 55 58 60 63 63 60 55 50 46 42 36 31 24 19 16 21 45 64 74 73 53 33 18 12 12 12 11 10 10 10 10 9 8 8 8 8 7 7 7 7 7 6 6 6 6 5 5 4 4 4 3 3 3 3 3 2 2 2 2 1 1 1 1 1 1 2 2 1 4 9 17 28
22 24 25 24 22 22 22 25 29 32 34 31 28 26 25 28 31 35 38 41 44 46 46 44 46 48 48 49 50 52 53 55 57 60 62 65 63 58 52 52 56 56 44 33 22 17 22 58 74 78 78 68 51 34 24 20 16 13 10 10 9 9 8 8 8 8 8 8 7 7 7 6 6 6 6 6 5 5 4 4 4 3 3 3 3 3 2 2 2 2 2 1 1 1 1 1 2 2 2 2 5 11 21
23 26 26 24 24 24 25 28 32 35 35 31 28 26 26 30 33 37 40 43 46 48 49 46 46 50 58 59 58 57 54 54 55 58 61 65 67 68 67 64 62 57 46 40 35 26 12 36 60 77 77 74 64 50 39 30 23 16 12 10 10 9 9 8 8 8 8 8 7 7 7 6 6 6 6 6 6 5 4 4 4 4 3 3 3 3 3 2 2 2 2 1 1 1 1 1 2 2 2 2 3 7 14
24 26 27 26 26 26 28 32 35 37 36 32 29 28 30 33 37 40 42 45 48 51 53 50 49 52 61 66 65 61 56 52 54 58 63 66 69 71 74 72 66 59 54 55 55 48 25 17 34 59 76 76 70 60 50 40 32 24 17 13 11 10 9 8 8 8 8 8 7 7 6 6 6 6 6 6 6 5 5 4 4 4 3 3 3 3 3 2 2 2 2 2 1 1 1 1 2 2 2 2 2 4 10
26 27 28 27 28 29 32 35 38 39 37 34 32 32 34 37 40 42 44 46 50 53 56 55 53 52 57 64 66 64 58 54 54 58 66 69 70 71 72 72 72 72 74 74 71 60 42 24 21 32 57 70 73 69 64 54 42 32 22 17 13 11 10 9 8 8 8 8 7 7 6 6 6 6 6 6 6 6 5 4 4 4 4 3 3 3 3 2 2 2 2 2 1 1 1 1 2 2 3 2 2 3 6
26 28 30 30 31 33 36 38 40 40 40 38 36 36 37 40 42 44 46 48 51 54 58 58 57 55 54 60 63 64 60 56 55 57 64 69 71 72 72 73 73 73 73 74 72 66 53 40 31 28 29 45 56 60 58 50 41 32 24 18 14 11 10 8 8 8 8 8 7 7 6 6 6 6 6 6 6 6 5 5 4 4 4 3 3 3 3 2 2 2 2 2 2 1 1 1 2 2 3 3 2 2 4
28 30 31 32 34 36 39 40 42 42 42 40 39 38 38 41 44 47 49 51 53 56 58 60 61 60 58 58 59 60 59 57 57 58 63 68 71 72 74 74 74 74 74 74 73 72 68 56 48 40 30 27 31 36 38 34 30 26 21 16 13 11 10 8 8 8 8 8 7 7 7 6 6 6 6 6 6 6 5 5 4 4 4 4 4 3 3 3 2 2 2 2 2 1 1 1 2 2 3 3 2 2 2
28 32 34 35 36 39 40 42 42 43 44 43 42 40 40 42 47 51 53 54 56 58 60 62 63 64 63 62 60 59 58 58 60 62 66 68 70 72 74 74 74 74 76 76 76 74 74 67 58 48 37 27 23 22 24 23 21 19 17 14 12 11 10 9 8 8 8 8 7 7 7 6 6 6 6 6 6 6 6 5 5 4 4 4 4 4 4 3 3 2 2 2 2 2 1 1 2 2 3 3 3 2 2
29 33 36 37 39 40 41 42 43 44 46 46 44 42 42 44 49 54 56 57 58 60 62 64 65 66 67 66 65 63 62 62 64 67 71 72 72 72 74 76 76 76 76 76 76 76 74 70 61 50 38 32 25 20 18 19 18 17 15 14 12 11 10 10 9 8 8 8 8 7 7 6 6 6 6 6 6 6 6 5 5 5 4 4 4 4 4 4 3 3 2 2 2 2 2 2 2 2 3 3 3 3 2
30 34 38 39 40 40 40 41 43 45 48 48 46 45 44 46 51 57 60 60 60 61 63 65 67 68 69 69 69 68 68 68 68 70 74 76 74 74 74 76 76 77 77 76 76 74 71 65 57 48 42 34 27 22 16 17 18 17 16 15 14 12 11 10 10 9 8 8 8 8 7 7 6 6 6 6 6 6 6 5 5 5 5 5 5 5 4 4 4 4 3 2 2 2 2 2 2 2 3 4 4 3 2
Wind_Speed
44 45 45 45 46 46 46 47 47 47 47 48 48 48 48 49 49 49 50 50 51 52 52 53 53 53 53 53 52 51 51 50 50 50 50 51 50 50 48 48 47 47 46 46 46 46 45 45 44 43 43 43 44 45 46 47 47 47 48 48 48 48 48 48 48 48 48 47 46 45 44 43 42 42 41 40 40 39 39 38 38 38 38 38 37 36 36 36 36 35 34 34 33 32 31 31 30 30 30 30 30 30 30
44 44 44 45 45 45 46 46 46 47 47 47 48 48 48 49 49 49 50 50 51 52 53 53 53 54 54 54 54 54 53 52 51 51 50 51 51 51 51 49 48 48 47 47 47 47 46 46 45 45 44 44 44 45 46 47 48 48 48 48 48 48 48 49 49 49 49 48 48 47 46 45 44 43 42 42 41 41 40 40 39 38 38 38 38 37 36 36 37 37 36 35 34 34 33 32 32 31 31 31 31 31 31
43 43 44 44 44 44 45 45 45 46 46 47 47 47 48 48 48 49 49 50 50 51 52 53 53 54 54 55 55 56 56 55 54 53 51 51 51 52 52 52 50 49 49 48 48 48 47 47 46 46 45 45 45 45 46 47 48 49 49 49 49 49 49 50 50 50 50 50 49 49 48 47 46 45 44 43 43 42 42 41 40 39 39 38 38 37 36 36 37 38 38 37 36 35 35 34 34 33 32 32 32 32 32
43 43 43 43 44 44 44 44 45 45 45 46 46 46 47 47 48 48 49 49 50 50 51 52 53 53 54 55 56 56 57 57 57 56 54 52 52 52 53 53 53 51 50 49 49 48 48 48 47 47 47 46 46 46 46 47 48 49 50 50 50 50 50 51 51 51 51 51 51 50 50 49 48 47 47 46 45 44 43 43 42 41 40 39 38 38 37 37 37 38 38 38 38 37 36 36 36 35 34 33 33 33 32
43 43 43 43 43 43 44 44 44 44 45 45 45 46 46 46 47 47 48 48 49 49 50 51 51 52 53 54 55 56 57 57 58 58 57 55 54 53 53 54 54 54 52 51 50 49 49 49 48 48 48 47 47 47 47 48 48 49 50 51 51 51 51 51 52 52 52 52 52 52 52 51 51 50 49 48 47 46 45 44 44 43 41 40 39 38 38 37 37 38 38 39 39 38 38 37 37 37 36 35 34 33 33
44 44 44 44 44 44 44 44 44 44 44 45 45 45 45 46 46 47 47 48 48 49 49 50 50 51 52 53 54 55 56 57 58 58 59 58 57 56 55 54 55 55 55 53 52 50 50 49 49 49 48 48 48 48 48 48 49 49 50 51 51 52 52 52 52 52 53 53 53 53 53 53 52 52 51 50 49 48 47 46 45 44 43 42 41 39 39 39 38 39 39 39 39 39 39 38 38 38 37 36 35 34 34
44 44 45 45 45 45 45 45 45 45 45 45 45 45 45 45 46 46 47 47 47 48 49 49 50 50 51 51 52 53 55 56 57 58 58 59 59 58 57 56 56 56 56 56 54 53 51 50 50 49 49 49 49 49 49 49 49 50 50 51 52 53 53 53 53 53 53 53 54 54 54 54 54 54 53 52 51 50 49 48 47 46 45 44 42 41 40 40 40 40 40 39 39 39 39 39 39 39 38 38 37 36 35
45 45 45 45 45 45 45 45 46 46 46 46 46 46 46 46 46 46 46 47 47 48 48 49 49 50 50 51 51 52 53 54 55 56 57 58 59 59 59 59 58 57 57 57 57 56 54 52 51 50 50 50 49 50 50 50 50 50 51 51 52 53 54 54 54 54 54 54 55 55 55 56 55 55 55 54 53 52 51 49 48 47 47 46 44 43 42 41 41 41 41 40 40 39 39 40 40 40 40 39 38 37 36
44 44 45 45 45 45 45 46 46 46 46 46 46 46 47 47 47 47 47 47 48 48 48 49 49 49 50 50 51 52 52 53 54 55 56 57 58 59 60 60 60 59 58 57 57 57 57 56 54 52 51 50 50 50 50 51 51 51 51 52 52 53 54 54 55 55 55 55 56 56 56 57 57 56 56 55 55 54 53 51 50 49 48 47 47 45 44 43 42 42 42 41 41 40 40 40 40 41 41 40 39 38 37
44 44 44 44 45 45 45 45 46 46 46 46 47 47 47 47 47 48 48 48 48 49 49 49 49 50 50 51 51 52 52 52 53 54 54 56 57 58 59 60 61 60 60 58 58 58 58 58 57 55 52 51 50 50 51 51 52 52 52 52 53 53 54 54 55 56 56 56 56 57 57 57 58 58 57 57 56 56 55 53 52 51 50 49 48 47 46 45 44 43 43 43 42 41 40 40 40 41 41 41 41 40 39
43 44 44 44 45 45 45 46 46 46 46 47 47 47 47 48 48 48 49 49 49 50 50 50 50 50 50 51 52 52 52 53 53 53 54 55 56 57 58 59 60 61 61 60 59 58 58 59 59 58 56 53 51 51 51 51 52 52 53 53 53 53 54 55 55 56 57 57 57 58 58 58 58 58 58 58 58 57 56 55 54 53 52 51 50 49 48 47 45 44 44 43 43 42 41 40 40 41 41 42 42 41 40
44 44 44 45 45 45 46 46 46 47 47 47 47 47 48 48 48 48 49 49 50 50 51 51 51 51 51 51 52 52 53 53 53 53 54 54 55 56 57 58 59 60 61 61 61 60 59 59 59 60 59 57 54 52 51 51 52 52 53 53 54 54 54 55 55 56 57 58 58 59 59 59 59 59 59 59 59 59 58 57 56 55 54 53 52 51 50 49 47 46 45 44 43 43 42 41 41 41 42 43 43 43 42
44 45 45 45 46 46 46 47 47 47 47 47 48 48 48 48 48 49 49 50 50 51 51 51 51 52 52 52 52 53 53 53 54 54 54 55 55 56 57 57 58 59 60 61 62 62 61 60 60 60 60 59 58 55 53 52 52 52 53 53 54 55 55 55 56 56 57 58 59 59 60 60 60 60 60 60 60 60 59 59 58 57 56 54 53 53 52 51 49 48 47 45 44 44 43 43 42 42 43 43 44 44 44
44 45 45 46 46 46 47 47 47 47 48 48 48 48 48 48 49 49 49 50 50 51 51 52 52 52 53 53 53 54 54 54 54 54 55 55 56 56 57 57 58 58 59 60 61 62 62 62 61 60 59 60 60 59 57 54 53 52 52 53 54 55 55 56 56 56 57 58 59 60 61 61 61 61 61 61 61 61 60 60 59 59 58 56 55 54 53 52 51 50 48 47 46 45 45 44 43 42 43 44 44 44 45
45 45 45 46 46 47 47 47 48 48 48 48 48 49 49 49 49 49 49 50 50 51 51 52 52 53 53 53 54 54 54 54 55 55 55 55 56 57 57 58 58 58 59 60 61 62 62 63 62 61 60 60 60 61 60 58 55 53 52 52 53 54 55 56 56 57 57 58 59 60 61 62 62 62 62 62 62 62 61 61 61 60 59 58 57 56 54 53 52 51 50 48 47 47 46 45 44 43 43 44 45 45 45
45 46 46 46 47 47 48 48 48 48 48 49 49 49 49 49 49 49 50 50 50 51 51 52 52 53 53 54 54 55 55 55 55 55 55 56 56 57 57 58 58 59 59 60 60 61 62 63 63 62 62 61 60 61 61 61 59 56 53 52 52 54 55 56 57 57 58 58 59 60 62 62 62 63 63 63 63 63 62 62 62 62 61 60 59 57 56 55 54 53 52 50 49 48 47 47 46 45 44 44 44 45 45
46 46 47 47 47 47 48 48 48 48 48 49 49 49 49 49 49 50 50 50 50 50 51 51 52 52 53 54 54 55 55 56 56 56 56 56 57 57 58 58 59 59 60 60 61 62 62 63 63 63 63 62 61 61 61 62 61 59 56 54 52 53 54 55 57 57 58 58 59 60 61 62 63 64 64 64 64 63 63 63 63 63 62 62 60 59 58 56 55 54 53 52 51 50 49 48 47 46 45 44 44 45 45
47 47 47 47 47 47 47 48 48 48 48 48 48 49 49 49 49 49 50 50 50 50 51 51 51 52 52 53 54 55 55 56 56 56 56 56 57 57 58 58 59 59 60 61 61 62 63 63 63 63 63 63 62 62 62 62 62 62 60 57 54 53 53 54 56 57 58 59 59 60 61 62 63 64 65 65 65 64 64 64 64 64 63 63 62 61 60 58 57 56 55 54 52 51 50 49 49 48 46 45 45 45 46
47 47 47 47 47 47 47 48 48 48 48 48 48 48 48 49 49 49 49 50 50 50 51 51 51 51 52 53 53 54 55 56 56 56 57 57 57 57 58 58 59 59 60 61 62 62 63 63 64 64 64 64 64 63 63 63 62 62 61 60 57 55 54 54 55 56 58 59 59 60 61 62 63 64 65 65 65 65 65 65 65 65 65 64 63 63 61 60 59 57 56 55 54 53 52 51 50 49 48 47 46 45 46
49 48 48 48 48 48 48 48 48 48 48 49 49 49 49 49 49 49 49 49 49 50 50 50 51 51 52 52 53 53 54 55 55 56 57 57 57 58 58 59 59 60 60 61 61 62 63 64 64 64 64 64 64 64 64 64 63 62 62 61 60 58 55 54 54 55 57 58 59 60 61 62 63 64 65 66 66 66 66 66 66 66 66 65 65 64 63 62 60 59 58 56 55 54 53 53 52 51 50 49 47 46 46
50 50 50 50 50 50 50 50 49 49 49 49 49 50 50 49 49 49 49 49 49 49 50 50 50 51 51 52 52 53 53 54 54 55 56 57 57 58 58 59 59 60 60 61 61 62 63 64 64 65 65 65 65 65 65 65 64 63 62 62 61 60 58 56 55 55 56 57 59 60 61 61 62 64 65 66 67 67 67 67 67 67 67 66 66 65 64 63 62 61 59 58 57 56 55 54 53 53 52 50 49 47 47
52 53 53 53 53 53 52 52 52 52 51 51 51 51 51 50 50 50 50 50 49 49 49 50 50 50 51 51 51 52 53 53 53 54 55 56 57 57 58 59 59 60 61 61 61 62 63 64 64 65 65 65 65 66 66 66 65 64 63 62 62 62 61 59 57 55 55 56 58 59 60 61 62 63 64 66 67 68 68 68 68 68 67 67 67 66 65 65 64 63 61 60 58 57 56 56 55 54 53 52 51 49 48
54 55 55 55 55 55 55 55 55 54 54 53 52 52 52 52 51 51 51 50 50 50 50 49 50 50 50 50 51 51 52 52 52 53 54 55 56 57 58 58 59 60 61 61 62 62 63 63 64 65 65 66 66 66 66 66 66 65 64 62 62 62 62 61 59 57 56 56 57 58 60 61 62 63 64 65 67 68 68 69 69 69 68 68 68 67 67 66 65 64 63 62 60 58 57 57 57 56 55 53 52 50 49
56 57 57 57 57 57 57 57 57 57 56 56 55 54 54 53 52 51 51 51 50 50 50 49 49 49 50 50 50 51 51 51 52 52 53 54 55 56 57 58 58 59 60 61 62 62 63 63 64 64 65 66 66 66 67 67 67 66 65 63 62 62 62 62 62 60 57 56 56 57 59 60 61 62 63 64 66 67 68 69 69 69 69 69 69 68 68 67 67 66 65 63 62 60 59 58 58 57 56 55 53 52 50
58 59 59 59 59 59 59 59 58 58 58 57 56 56 55 54 53 52 51 51 50 50 49 49 49 49 49 49 49 50 50 51 51 52 52 53 54 55 56 57 58 58 59 60 61 62 63 63 63 64 65 65 66 66 67 67 67 67 66 64 63 62 62 63 63 62 60 58 57 57 58 59 60 62 63 64 65 66 68 69 70 70 70 70 70 70 69 69 68 68 67 65 64 62 61 60 60 59 58 56 54 53 52
60 60 61 61 61 60 60 60 59 59 58 58 57 56 56 55 54 52 51 51 50 49 49 49 48 48 48 48 48 49 49 50 50 51 52 52 53 54 55 56 57 57 58 59 60 61 62 63 63 64 64 65 65 66 67 67 67 67 66 65 64 63 62 63 63 63 62 60 58 57 57 58 59 61 62 63 64 65 67 69 70 71 71 71 71 71 70 70 70 69 68 67 66 64 63 61 61 60 59 57 56 55 54
62 62 62 62 62 61 61 61 60 59 58 58 57 56 56 55 54 53 52 51 50 49 48 48 47 47 47 47 47 48 48 49 49 50 51 51 52 53 54 55 55 56 57 58 59 60 61 62 62 63 63 64 64 65 66 67 67 67 67 66 64 63 62 63 63 63 63 62 60 58 57 57 58 60 61 62 64 65 66 68 69 71 71 72 72 72 71 71 71 70 70 69 68 66 64 63 62 61 60 59 57 56 55
63 62 62 62 62 61 61 60 60 59 58 57 56 56 55 54 53 53 52 51 50 49 48 47 47 47 46 46 46 47 47 47 48 49 50 51 51 52 53 53 54 55 56 57 58 58 59 60 61 62 62 63 63 64 65 66 66 66 66 66 65 64 63 63 63 63 63 63 62 60 58 57 58 59 60 61 63 64 65 67 68 70 72 72 72 72 72 72 72 72 71 71 70 68 66 65 64 63 62 60 59 58 57
64 63 62 62 62 61 60 59 59 58 57 56 55 55 54 53 52 52 52 51 50 49 49 48 47 47 46 46 46 46 46 47 47 48 49 49 50 51 52 52 53 54 55 55 56 57 58 58 59 60 61 61 62 62 63 64 65 65 65 65 65 64 63 63 63 63 63 63 62 61 60 58 58 58 59 61 62 63 64 66 67 69 71 73 73 73 73 73 73 73 72 72 71 70 69 67 66 64 63 62 61 59 58
64 63 63 62 61 60 59 58 58 57 56 56 55 54 54 53 52 52 52 51 50 50 50 49 48 47 46 46 46 46 46 46 46 47 47 48 49 50 51 51 52 53 54 54 55 55 56 56 57 58 59 59 60 60 61 62 63 63 64 64 64 64 63 62 62 62 63 63 62 62 61 59 58 58 59 60 61 62 64 65 66 68 70 72 73 74 74 74 74 74 73 73 73 72 71 69 68 66 65 64 62 61 59
64 63 62 61 60 60 59 58 57 57 56 55 55 55 54 53 53 52 52 51 51 51 50 50 49 48 48 47 46 46 46 46 46 46 47 47 48 48 49 50 51 52 52 53 54 54 54 55 55 56 56 57 57 58 58 59 60 61 62 62 62 62 62 62 62 62 62 62 62 62 61 60 59 58 58 59 60 61 63 64 66 67 69 71 73 74 75 75 75 75 74 74 74 74 73 71 70 68 66 65 64 63 61
63 63 62 61 60 59 58 58 57 57 56 56 55 55 54 54 53 52 52 52 51 51 51 50 50 50 49 48 47 46 46 45 46 46 47 47 47 47 48 49 50 51 52 52 53 53 53 53 53 54 54 54 55 55 56 57 58 59 59 60 60 60 60 60 61 61 61 62 62 61 61 60 59 59 58 59 59 61 62 63 65 66 68 70 72 74 75 75 75 75 75 75 75 75 74 73 71 70 68 67 65 64 63
63 62 61 60 60 59 59 58 58 57 57 56 55 55 54 54 53 52 52 51 51 50 50 50 50 50 50 49 48 47 47 46 46 46 46 46 46 47 48 48 49 50 51 51 52 52 52 52 51 51 52 52 53 53 54 55 55 56 57 57 58 58 58 58 59 59 60 60 61 61 61 60 60 59 58 58 59 60 61 63 64 65 67 68 70 72 74 75 76 76 76 76 76 76 75 74 73 71 70 68 67 66 64
62 61 60 60 60 59 59 59 58 58 57 56 55 54 53 53 52 51 51 50 50 50 49 49 49 49 49 49 49 48 48 47 47 46 46 46 46 47 47 47 48 49 50 50 51 51 51 50 50 50 50 50 50 51 51 52 53 54 55 55 55 55 56 56 56 57 58 59 59 60 60 60 59 59 58 58 58 60 61 62 63 64 65 67 69 71 73 75 76 76 76 76 76 76 76 75 74 73 71 70 68 67 66
61 61 60 60 60 60 60 59 58 57 56 55 54 53 52 51 50 50 49 49 48 48 48 48 48 48 48 48 49 49 48 48 47 47 47 47 46 46 46 47 48 49 49 49 50 50 50 49 49 49 49 48 49 49 49 50 51 52 52 53 53 53 53 54 54 55 55 57 58 58 59 59 59 58 58 58 58 59 60 61 62 63 64 66 67 69 71 74 76 77 77 77 77 77 76 75 75 74 72 71 70 68 67
60 60 60 61 61 60 60 59 58 56 55 53 52 51 50 49 48 48 47 47 47 46 46 46 46 47 47 47 48 48 48 48 48 47 47 47 47 46 46 47 48 48 49 49 49 50 49 49 48 48 47 47 47 47 48 48 48 49 50 50 51 51 51 51 52 52 53 54 55 56 57 57 58 58 58 58 58 58 59 60 61 62 63 65 66 68 70 72 75 76 77 78 78 77 77 76 75 74 74 72 71 70 68
60 60 61 61 61 60 59 58 56 54 53 51 50 48 48 47 46 46 45 45 45 45 45 45 45 45 45 46 46 47 47 48 48 48 48 48 47 47 46 47 47 48 48 48 49 49 48 48 48 47 47 46 46 46 46 46 46 47 47 48 49 49 49 49 49 50 51 52 53 54 55 56 57 57 57 58 58 58 58 59 60 61 62 63 65 66 68 70 73 76 77 78 78 78 78 77 76 75 75 74 72 71 69
60 61 61 61 61 60 58 56 54 52 50 48 47 46 45 45 45 44 44 44 44 44 43 44 44 44 44 44 45 46 46 47 47 48 48 48 48 47 47 47 47 47 47 48 48 48 48 48 47 47 46 45 45 45 45 45 45 45 46 46 46 47 47 47 47 48 48 49 50 51 53 54 55 56 57 57 57 56 57 57 59 60 61 62 64 65 67 69 71 74 76 78 78 78 78 77 77 76 75 75 74 72 71
61 61 61 61 60 58 56 54 52 50 48 46 45 44 44 44 43 43 43 43 43 43 43 43 43 43 43 44 44 45 45 46 46 47 48 48 48 48 48 48 47 47 47 47 47 47 47 47 47 46 45 44 44 44 44 44 43 44 44 44 45 45 45 46 46 46 46 46 47 48 50 52 54 55 55 56 55 55 55 56 57 59 61 62 63 64 65 67 69 72 75 77 78 78 78 78 77 76 76 75 74 73 72
61 61 61 60 58 56 54 52 49 48 46 45 44 44 43 43 43 43 43 43 43 43 43 43 43 44 44 44 45 45 46 46 46 47 48 48 48 48 48 48 48 47 47 47 46 47 47 47 46 45 44 44 44 43 43 42 43 43 43 43 43 44 44 44 44 44 44 44 45 46 47 49 51 53 54 54 53 53 53 54 56 58 60 61 62 63 64 65 68 70 73 75 77 78 79 78 78 77 76 75 75 74 73
61 61 60 59 57 54 52 49 48 46 45 44 44 43 43 43 44 44 44 44 44 43 43 43 44 44 45 45 46 46 47 47 47 48 48 48 48 48 48 48 48 48 47 46 46 46 46 46 46 45 44 43 43 42 42 42 42 42 42 42 42 43 43 43 43 43 43 43 43 44 45 47 49 50 51 51 52 51 52 52 54 56 58 60 61 62 63 64 66 68 71 73 76 78 79 79 78 77 77 76 75 74 73
61 60 59 57 55 52 50 48 46 45 44 44 44 44 44 44 45 45 45 45 45 44 44 44 44 45 46 47 47 47 48 48 49 49 49 49 49 49 49 48 48 48 47 46 45 45 45 45 45 44 44 43 42 41 41 41 41 41 41 41 41 42 42 42 43 42 42 41 41 42 43 44 46 47 48 49 50 50 50 50 51 53 56 59 60 61 62 63 64 67 69 72 74 77 78 79 79 78 77 76 76 75 74
61 59 58 55 53 50 48 46 45 45 44 45 45 45 45 46 46 46 46 46 46 46 45 45 45 46 46 47 48 48 49 49 49 50 50 50 49 49 49 48 48 48 47 46 45 45 45 44 44 44 43 42 41 41 41 40 40 40 40 40 41 41 41 42 42 42 41 40 40 40 41 42 43 44 45 47 48 48 49 49 49 51 53 56 59 61 61 62 63 65 67 70 72 75 78 79 79 79 78 77 76 76 75
60 58 56 53 51 49 47 46 45 45 45 46 46 47 47 46 46 46 46 46 46 46 46 46 46 46 47 47 48 49 49 49 50 50 50 50 50 50 49 49 48 48 47 45 44 44 44 43 43 42 42 41 41 40 40 39 39 39 39 40 40 40 40 41 41 41 40 40 40 40 40 40 40 41 42 44 45 46 47 47 47 48 51 54 57 59 61 61 62 64 66 68 70 73 76 78 79 79 79 78 77 76 75
59 57 54 52 49 47 46 45 45 45 46 47 47 47 47 46 46 46 46 46 47 47 47 47 47 46 47 47 48 48 49 49 49 49 49 49 49 49 49 49 48 47 46 45 44 43 42 42 42 41 41 40 40 40 39 38 38 38 38 38 39 40 40 41 40 40 39 39 39 39 38 38 38 39 40 42 43 44 45 46 46 47 48 51 54 57 59 61 61 62 64 66 68 71 74 76 78 79 79 78 77 76 76
57 55 53 50 48 46 45 45 45 46 47 47 47 47 46 46 46 46 46 47 47 47 48 48 48 47 47 47 48 48 48 48 48 48 48 47 48 48 48 48 47 47 46 45 43 42 41 41 40 40 39 39 38 38 38 37 37 37 37 37 38 39 40 40 39 39 39 39 39 38 37 37 36 37 38 39 41 42 44 44 45 45 46 48 51 55 58 60 60 61 63 64 66 69 71 74 76 78 78 78 77 77 76
56 53 51 48 46 45 44 45 46 47 47 47 46 46 45 45 45 46 47 47 48 48 48 49 49 49 49 48 48 48 48 47 47 46 46 45 45 45 46 46 46 46 45 44 42 40 39 39 38 38 37 36 36 36 36 36 36 36 36 37 39 39 39 38 38 38 38 39 39 38 37 36 35 36 36 37 39 41 42 43 44 44 45 46 49 52 55 58 59 60 61 62 64 66 69 71 74 76 77 78 77 77 77
54 51 48 46 44 44 44 44 45 46 46 46 45 44 44 45 45 46 47 47 48 49 49 50 50 50 50 50 49 47 46 46 45 44 44 43 43 43 43 43 44 44 44 42 40 38 37 36 36 35 34 34 34 33 33 33 34 35 37 38 38 38 37 37 37 38 38 38 38 37 36 35 35 35 35 36 37 39 40 41 42 43 43 44 46 49 52 56 58 59 60 61 62 64 66 69 72 74 76 77 78 78 78
52 49 46 44 43 43 43 44 45 45 44 44 43 43 44 44 45 46 46 47 48 49 50 51 51 51 51 50 48 47 45 44 43 42 42 42 42 41 41 41 41 42 41 40 38 35 33 32 32 31 31 30 30 30 31 32 34 36 38 37 37 36 36 36 37 38 38 37 37 36 36 35 35 34 34 34 35 37 38 40 41 42 42 43 44 46 49 53 56 58 59 60 61 62 64 67 69 72 75 77 78 78 79
49 47 45 43 42 42 43 43 43 43 42 42 42 43 43 44 45 45 46 47 48 49 50 51 51 50 50 49 47 46 44 43 42 41 41 41 41 41 41 41 41 40 39 38 36 32 28 26 25 25 25 25 26 28 31 33 35 36 37 36 35 35 35 36 37 37 36 36 36 36 35 35 34 34 34 33 34 35 36 38 39 40 41 41 42 44 47 50 54 56 58 59 60 61 63 64 67 70 73 76 78 79 79
47 44 43 42 41 41 41 41 41 41 41 41 41 42 43 43 44 45 46 46 47 48 49 50 50 49 48 47 46 45 44 42 41 41 41 41 40 40 41 42 41 40 39 38 34 27 21 15 13 14 18 23 27 30 32 34 35 35 35 34 34 34 35 35 35 35 35 35 35 35 35 35 34 34 33 33 33 33 35 36 38 39 39 40 41 42 44 47 51 54 57 58 59 60 61 63 65 67 70 73 76 78 79
45 43 41 41 40 40 40 40 40 40 40 41 41 42 42 43 43 44 45 46 47 48 48 49 49 48 47 46 46 45 44 43 41 41 40 41 40 39 39 39 40 40 40 38 32 22 11 8 8 12 18 23 27 30 32 33 34 34 33 33 33 33 33 34 34 34 34 34 35 35 34 34 34 33 33 32 32 32 33 35 36 37 38 39 39 41 43 45 48 52 55 56 57 58 59 61 63 65 67 70 74 76 78
43 41 40 39 39 38 38 38 38 39 40 41 41 41 42 42 43 43 44 46 46 47 48 48 47 47 46 46 45 45 44 43 42 40 39 39 39 39 38 37 37 37 38 38 33 23 13 13 15 18 19 22 26 29 31 32 32 32 32 31 31 32 32 32 32 33 33 34 34 34 34 34 33 33 32 32 32 32 33 34 35 36 37 37 38 39 41 43 46 49 53 55 56 57 58 59 61 63 65 68 71 74 77
41 39 38 38 37 37 37 37 38 39 40 40 41 41 41 41 42 43 44 45 46 47 47 47 46 45 44 44 45 45 44 43 42 40 39 38 37 37 37 36 35 34 34 34 33 28 21 18 19 20 21 23 26 28 30 30 30 30 29 29 29 30 30 31 31 32 32 33 33 33 33 33 33 32 31 31 31 32 32 32 33 35 36 36 37 38 39 41 44 47 50 53 54 55 56 58 59 61 63 65 69 72 75
39 38 37 36 35 35 35 36 38 39 40 40 40 40 40 41 42 43 44 44 45 45 46 46 46 44 42 42 43 44 44 43 41 40 38 37 35 34 33 33 33 32 31 30 30 29 25 20 19 22 22 23 25 27 28 28 28 27 26 27 28 28 29 30 30 31 32 32 32 32 32 32 32 31 31 31 31 31 31 32 32 34 34 35 36 36 38 40 43 46 49 51 53 54 54 56 57 59 61 63 66 70 73
38 36 35 34 34 34 34 36 37 39 40 40 40 40 40 40 41 42 43 43 43 44 44 45 45 43 41 40 41 42 42 41 40 38 36 35 33 31 29 29 29 29 29 29 29 28 25 20 18 22 24 24 24 25 26 26 25 24 25 25 26 27 28 29 29 30 31 31 31 31 31 31 31 31 31 31 31 30 30 31 32 33 34 34 35 35 37 38 41 44 47 49 51 52 53 54 55 57 59 62 64 68 71
37 35 34 33 32 32 33 35 37 39 40 40 40 39 39 40 40 41 42 42 42 42 42 43 43 43 41 39 38 39 40 39 38 35 33 32 30 28 27 25 24 24 25 26 27 27 25 20 19 20 23 24 24 24 24 24 24 24 24 24 25 26 27 27 28 28 29 29 29 30 30 30 30 30 30 30 30 30 30 30 31 32 33 34 34 35 35 37 40 43 45 48 49 50 51 52 54 56 58 60 63 66 69
35 34 33 32 31 31 32 34 36 38 40 40 40 39 38 39 40 40 41 41 41 41 41 41 41 41 40 38 37 37 37 36 35 33 30 29 28 27 25 24 22 21 21 22 23 24 24 21 20 20 19 20 23 23 23 23 24 24 23 24 24 25 25 25 26 27 27 28 29 29 30 30 30 30 30 29 29 29 30 30 31 31 32 33 34 34 34 36 38 41 44 46 48 49 50 51 53 55 57 59 62 65 67
34 33 32 30 30 30 31 33 35 37 39 40 39 38 37 38 39 39 40 40 39 39 39 39 39 39 39 38 37 36 35 33 32 30 29 28 27 26 25 24 22 20 20 19 19 19 20 21 20 19 17 17 19 19 20 22 23 23 22 22 23 23 23 24 24 25 26 27 28 28 29 29 29 29 29 29 29 29 29 29 30 31 32 33 33 33 34 35 37 40 42 44 46 47 48 49 51 53 56 58 61 63 66
32 31 30 29 29 29 30 32 34 36 38 39 39 38 37 37 37 38 38 39 38 38 38 38 38 38 37 37 36 35 34 32 31 30 29 29 29 27 25 24 22 21 20 19 18 18 17 17 17 16 16 16 15 15 16 19 21 21 21 21 21 21 21 22 23 24 25 26 27 27 28 28 28 28 28 28 28 28 28 29 29 30 31 32 33 33 33 34 36 38 40 42 44 45 46 47 49 51 54 56 59 61 64
31 30 29 28 28 29 30 31 32 34 36 38 38 38 36 36 36 37 38 38 38 38 38 38 37 37 36 36 35 35 34 33 32 31 30 30 30 29 26 24 22 21 19 18 17 17 15 14 13 13 13 14 14 14 16 16 17 18 19 20 19 19 20 20 21 22 23 25 26 26 27 27 28 28 28 28 27 27 28 28 29 30 31 31 32 33 33 34 35 36 38 40 42 43 44 45 46 49 52 54 57 59 61
Wind_Direction
306 306 305 304 303 302 302 301 300 299 299 298 297 296 295 294 294 293 292 291 290 290 289 288 287 286 286 285 284 282 281 281 280 280 279 278 277 275 274 272 271 269 267 266 265 263 262 261 259 256 254 251 249 247 246 244 243 243 242 241 240 240 239 238 238 238 237 237 238 239 240 241 242 242 241 240 239 239 239 239 238 237 236 235 236 237 238 237 237 236 236 237 238 238 237 237 237 236 234 233 232 231 230
306 306 305 304 303 302 301 301 300 299 298 298 297 296 295 294 293 293 292 291 290 289 289 288 287 287 286 285 284 283 282 280 279 279 279 279 278 276 275 273 271 270 268 266 265 263 262 261 259 257 255 252 250 248 247 245 244 243 242 241 240 239 238 238 237 237 237 237 237 237 238 239 241 241 241 240 239 239 238 238 238 237 236 235 235 235 236 237 237 237 236 236 236 237 237 237 237 236 235 233 232 231 231
307 306 305 304 303 302 301 300 300 299 298 297 296 296 295 294 293 292 291 291 290 289 288 287 287 286 286 285 285 284 282 281 280 278 278 278 278 277 276 274 272 270 269 267 266 264 262 261 259 257 256 253 251 249 248 246 245 243 242 241 239 239 238 237 237 237 236 236 236 236 237 237 239 240 240 240 239 239 238 238 237 236 235 235 234 233 234 235 236 236 237 236 236 236 236 236 236 236 235 234 233 231 230
308 307 306 305 304 303 302 301 300 299 298 297 296 295 294 293 293 292 291 290 289 288 288 287 286 286 285 285 285 284 283 282 281 279 278 278 277 277 277 275 274 272 270 268 267 265 263 261 259 258 256 254 252 250 249 247 245 244 243 241 240 238 238 237 237 236 236 235 235 235 235 236 237 238 239 239 239 239 238 237 236 236 235 234 233 232 232 232 233 235 236 236 236 235 235 235 236 235 235 234 233 231 230
308 308 306 305 304 303 302 301 300 299 298 297 296 295 294 293 292 291 290 290 289 288 287 286 285 285 285 284 284 283 283 282 281 280 279 278 277 277 277 276 275 273 271 269 268 266 264 262 260 258 256 254 253 251 249 248 246 245 243 242 240 239 238 237 236 236 235 235 235 235 235 235 235 236 237 238 239 238 238 237 236 235 235 234 233 232 231 231 231 232 233 235 235 235 235 235 235 235 234 234 233 232 230
309 309 308 306 305 304 303 302 301 299 298 297 296 295 294 293 292 291 290 289 288 287 286 285 285 284 283 283 282 282 282 281 281 281 280 279 278 277 276 276 275 274 273 271 269 267 265 263 261 259 256 255 253 251 250 248 247 245 244 243 241 239 238 237 236 236 235 235 234 234 234 234 234 234 235 236 237 238 238 237 236 235 235 234 233 232 232 231 230 229 231 232 233 234 235 235 234 234 234 233 233 232 230
310 309 308 307 306 305 304 303 302 301 299 298 297 296 295 293 292 291 290 289 288 287 286 285 284 283 283 282 281 281 280 280 280 280 280 279 278 277 276 276 275 275 274 273 271 269 266 264 262 260 258 255 253 252 250 249 247 246 245 243 242 240 239 237 236 235 235 234 234 234 234 233 233 233 234 235 236 237 237 237 236 236 235 234 233 233 232 231 230 228 228 229 230 232 233 234 234 234 233 233 232 232 231
310 309 309 308 307 306 305 304 303 302 301 300 298 297 296 294 293 292 290 289 288 287 286 285 284 283 282 281 280 280 279 279 279 279 279 278 278 277 276 275 275 274 274 274 273 271 269 266 264 261 259 257 254 252 250 249 248 246 245 244 242 241 240 238 237 235 234 234 233 233 233 233 233 233 233 233 234 235 236 237 236 236 235 235 234 233 232 232 230 229 228 227 228 229 231 232 233 233 232 232 232 231 231
309 309 308 307 306 305 304 304 303 302 301 300 299 298 296 295 294 293 291 290 288 287 286 285 284 283 282 281 280 279 278 278 277 277 277 277 277 277 276 275 274 274 273 273 273 273 271 269 266 263 261 258 256 253 251 249 248 247 245 244 243 242 240 239 237 236 235 234 233 233 233 233 232 232 232 232 233 234 235 236 236 236 236 235 234 234 233 232 231 230 229 228 227 227 228 230 231 232 232 231 231 231 230
308 307 307 306 305 304 303 302 302 301 300 299 298 297 296 295 294 293 292 291 289 288 286 285 284 283 282 281 280 279 278 277 276 276 276 276 275 275 275 274 274 273 273 272 273 273 272 271 269 266 263 260 258 255 253 250 248 247 246 245 244 242 241 240 238 236 235 234 233 233 232 232 232 232 232 232 232 232 233 234 235 235 235 235 235 234 233 233 232 231 229 228 228 227 227 228 229 231 231 231 231 230 230
308 307 306 305 305 304 303 302 301 300 299 298 297 296 295 294 293 293 291 290 289 288 287 285 284 283 282 280 279 278 278 277 276 275 275 274 274 274 274 273 273 272 272 272 271 271 271 271 270 268 266 262 259 257 254 252 249 247 246 245 244 243 242 240 239 237 236 234 233 233 232 232 232 232 231 231 231 231 232 232 233 234 235 235 235 234 234 233 232 231 230 229 228 228 227 227 228 229 230 230 230 230 230
309 309 307 306 305 304 303 302 301 300 298 297 296 295 294 293 292 291 290 289 288 287 286 285 284 283 281 280 279 278 277 276 276 275 274 274 273 273 272 272 272 272 271 271 271 270 270 270 270 269 268 266 262 259 256 254 251 249 246 245 244 243 242 241 239 238 236 235 234 233 232 232 232 231 231 231 231 231 231 231 232 233 234 234 234 234 234 233 233 232 231 230 229 229 227 226 227 228 229 229 229 229 229
311 310 309 308 307 306 304 303 302 301 299 298 297 295 294 293 292 290 289 288 287 286 286 285 284 283 281 280 279 278 277 276 275 274 274 273 272 272 271 271 270 270 270 270 270 269 269 268 268 268 269 268 266 262 259 256 253 250 248 246 244 243 242 241 240 238 237 236 234 233 232 232 232 231 231 231 231 231 230 231 231 231 232 233 234 234 234 233 233 232 231 230 230 229 229 227 227 228 228 228 228 228 229
312 311 310 309 308 307 306 305 303 302 301 300 298 297 295 294 292 291 289 288 287 286 285 284 283 282 281 280 279 277 276 275 274 273 273 272 272 271 271 270 270 269 269 269 269 269 268 267 267 267 267 268 267 265 262 258 255 252 249 247 245 244 242 241 240 239 238 236 235 234 233 232 232 231 231 230 230 230 230 230 230 230 231 232 233 233 233 233 233 232 231 230 230 230 229 228 228 228 228 227 227 227 228
314 313 312 311 310 308 307 306 305 304 303 301 300 298 297 295 294 292 290 288 287 286 284 283 282 281 280 279 278 277 276 275 274 273 272 271 271 270 270 269 269 269 269 268 268 268 267 267 266 265 265 266 267 266 265 262 258 254 251 249 247 245 243 242 240 239 238 237 236 235 233 233 232 231 231 230 230 230 230 230 230 230 230 230 231 232 233 233 233 232 231 231 230 230 229 229 228 228 228 227 227 227 228
315 314 313 312 311 309 308 307 306 305 303 302 301 299 298 296 295 293 291 290 288 286 285 283 282 281 280 279 278 277 275 274 273 272 271 271 270 269 269 268 268 268 268 268 267 267 266 266 265 265 264 265 265 265 265 264 261 258 254 251 248 246 244 242 241 240 239 238 236 235 234 233 232 231 231 230 230 229 229 229 229 229 229 229 230 231 232 232 233 232 231 231 230 230 229 229 228 228 228 228 227 227 227
316 315 314 313 311 310 309 307 306 305 304 302 301 300 298 297 296 294 292 291 289 287 286 284 282 281 279 278 277 276 275 274 273 272 271 270 269 269 268 267 267 267 267 267 267 266 266 265 264 264 264 264 264 264 264 264 263 261 258 254 250 248 245 243 242 240 239 238 237 236 235 233 232 232 231 230 230 229 229 229 229 229 229 229 229 229 230 231 232 232 231 230 230 230 229 229 229 229 228 228 227 226 226
317 316 314 313 312 310 309 308 307 306 304 303 302 300 299 298 296 295 293 292 290 288 287 285 283 281 280 278 277 276 275 274 273 272 271 270 269 268 267 267 266 266 266 266 266 265 265 264 264 264 263 263 263 262 262 262 263 262 261 257 253 250 247 245 243 241 239 238 237 236 235 234 233 232 231 230 230 229 229 228 228 228 228 228 228 228 229 230 231 231 231 230 229 229 229 229 229 229 229 228 227 226 226
317 316 315 314 313 312 310 309 308 307 306 304 303 302 300 299 297 296 294 293 291 290 288 286 284 283 281 279 277 276 275 274 273 271 271 270 269 268 267 266 266 265 265 264 265 264 264 264 264 263 263 263 262 262 261 261 261 262 262 260 257 253 249 246 244 242 240 239 238 237 236 234 233 232 232 231 230 229 229 228 228 228 228 228 228 228 228 228 229 230 230 230 229 229 228 228 228 228 228 228 227 226 226
319 318 317 316 315 314 312 311 310 309 308 306 305 304 302 300 299 297 296 294 292 291 289 287 286 284 282 280 278 277 275 274 272 271 271 270 269 268 267 266 266 265 264 263 263 263 263 263 263 263 262 262 262 262 261 260 260 260 261 261 260 257 252 249 246 244 242 240 238 237 236 235 234 233 232 231 230 230 229 228 228 228 228 227 227 227 227 228 228 229 229 229 229 228 228 228 228 228 228 228 227 226 226
321 320 319 318 317 316 315 313 312 311 309 308 307 305 304 302 301 299 297 296 294 292 290 289 287 285 283 281 280 278 276 274 273 272 271 270 269 268 267 266 266 265 264 263 263 263 262 262 262 262 262 262 262 261 261 260 259 259 260 261 261 260 256 252 248 245 243 241 239 238 236 235 234 233 233 232 231 230 229 228 228 228 227 227 227 227 227 227 227 228 228 228 228 228 228 228 228 227 227 227 227 226 226
323 322 321 320 319 318 317 315 314 313 311 310 309 307 305 304 303 301 299 298 296 294 292 290 289 287 285 283 281 279 277 276 274 272 271 270 269 268 267 266 266 265 265 264 263 262 262 262 261 261 261 261 261 261 260 259 259 259 259 259 260 260 259 256 252 247 244 242 240 238 237 236 235 234 233 232 231 230 229 229 228 228 227 227 227 226 226 226 227 227 228 228 227 227 227 227 227 227 227 227 226 226 226
324 323 322 321 320 319 318 317 316 315 313 312 310 309 307 306 304 303 301 299 297 296 294 292 290 288 286 285 283 281 279 277 275 273 271 270 269 268 267 266 266 265 265 264 263 263 262 261 261 261 261 261 260 260 259 259 258 258 258 259 259 260 260 258 255 251 247 244 241 240 238 236 235 234 233 233 232 231 230 229 228 228 227 227 226 226 226 226 226 227 227 227 227 227 227 227 227 227 227 226 226 226 226
325 324 323 322 321 320 319 319 317 316 315 314 312 311 309 307 306 304 302 301 299 297 295 293 291 290 288 286 284 282 280 278 277 275 273 271 269 268 267 266 265 265 265 264 264 263 262 262 261 261 260 260 260 260 259 259 258 258 257 258 259 259 260 259 258 255 251 246 243 241 239 237 236 235 234 233 232 231 230 229 228 228 227 227 226 226 225 225 226 226 226 226 226 226 226 226 227 227 226 226 226 226 226
326 325 324 324 323 322 321 320 319 318 316 315 314 313 311 309 308 306 304 302 300 298 296 294 293 291 289 287 285 283 281 280 278 276 274 272 270 268 267 266 266 265 265 264 264 263 263 262 261 261 260 260 260 260 259 259 258 257 257 257 258 258 259 259 259 257 255 250 246 243 240 238 237 236 234 233 233 232 231 230 229 228 227 227 226 226 225 225 225 225 226 226 226 226 226 226 226 226 226 226 226 226 226
327 326 325 325 324 323 322 321 320 319 318 317 316 314 313 311 310 308 306 304 302 300 298 296 294 292 290 288 286 284 282 280 279 277 275 273 271 269 268 267 266 265 265 264 264 263 263 262 262 261 261 260 260 259 259 259 258 258 257 257 257 258 258 258 258 258 257 254 250 245 242 240 238 236 235 234 233 232 231 230 229 228 228 227 226 226 225 225 225 225 225 225 226 226 226 226 226 226 226 225 225 225 226
328 327 326 325 325 324 323 322 321 320 319 318 317 316 314 313 312 310 308 306 305 302 300 298 295 293 291 289 287 285 283 281 279 277 276 274 272 270 269 267 266 266 266 265 264 264 263 262 262 261 261 260 260 259 259 259 258 258 257 257 257 257 257 257 258 258 258 257 254 249 245 241 239 238 236 235 233 232 232 231 230 229 228 227 227 226 225 225 224 224 225 225 225 225 225 225 226 226 226 225 225 225 226
328 328 327 326 325 325 324 323 322 321 320 319 318 317 315 314 313 312 310 309 307 305 303 300 298 295 293 290 288 286 283 281 280 278 276 275 273 271 269 268 267 266 266 265 265 264 264 263 262 262 261 261 260 260 259 259 259 258 258 257 257 256 256 257 257 257 257 257 256 253 249 244 241 239 237 236 234 233 232 231 230 229 228 228 227 226 225 225 224 224 224 225 225 225 225 225 225 225 225 225 225 225 225
329 328 328 327 326 326 325 324 323 322 321 320 319 317 316 315 314 313 311 310 308 307 305 303 300 298 295 293 290 287 285 283 281 278 277 275 274 272 270 269 267 266 266 265 265 264 264 263 263 262 262 261 260 260 260 259 259 259 258 258 257 256 256 256 256 257 257 257 257 255 253 248 244 241 238 237 235 234 232 232 231 230 229 228 227 226 225 225 224 224 224 224 224 224 225 225 225 225 225 225 224 224 225
329 329 328 328 327 326 326 325 324 323 321 321 319 318 317 316 314 313 311 310 309 307 306 304 302 300 298 295 292 290 287 285 282 280 278 276 274 273 271 270 268 267 266 265 265 264 264 263 263 262 262 261 261 260 260 260 259 259 259 258 258 257 256 256 256 256 256 256 256 256 255 252 248 243 240 238 236 235 233 232 231 230 229 228 227 226 226 225 224 224 224 224 224 224 224 224 224 224 224 224 224 224 224
330 329 329 328 328 327 326 325 324 323 322 321 319 318 317 316 314 313 311 310 309 307 306 304 303 301 299 297 294 292 289 287 284 282 279 277 275 273 272 270 269 267 266 265 264 264 264 263 263 262 262 262 261 261 260 260 259 259 259 259 258 258 257 256 256 256 256 256 256 256 256 254 251 247 243 240 237 236 234 233 232 231 230 229 228 227 226 225 225 224 224 224 223 223 224 224 224 224 224 224 224 224 224
330 330 329 329 328 327 326 325 324 322 321 320 319 318 316 315 314 312 311 309 308 306 305 304 302 301 299 297 295 293 291 289 286 283 281 279 276 274 272 271 269 268 266 265 264 264 263 263 262 262 262 262 262 261 260 260 259 259 259 259 259 258 257 257 256 256 255 255 255 256 255 255 254 250 246 242 239 237 235 234 232 231 230 229 228 227 227 226 225 225 224 224 223 223 223 224 224 224 224 224 224 223 223
330 330 329 329 328 327 326 325 324 323 322 321 319 318 317 315 314 312 311 309 308 306 305 303 301 300 299 297 295 293 292 290 287 285 282 280 278 275 273 271 270 268 267 265 264 263 263 263 262 262 262 262 262 261 261 260 260 259 259 259 259 259 258 257 257 256 255 255 255 255 255 255 254 253 249 245 241 239 237 235 233 232 231 230 229 228 227 226 226 225 225 224 224 223 223 223 224 224 224 224 223 223 223
330 330 329 329 328 327 326 325 324 323 322 321 320 319 318 316 315 313 312 310 308 306 305 303 301 299 298 296 294 293 291 289 287 285 284 281 279 277 274 272 270 268 267 265 264 263 263 262 262 262 262 262 262 261 261 261 260 260 259 259 259 259 259 258 257 256 256 255 255 255 255 255 255 254 252 248 244 240 238 236 234 233 232 230 229 228 227 227 226 226 225 225 224 223 223 223 224 224 224 224 224 223 223
330 330 330 329 328 328 327 326 325 325 324 323 322 321 320 318 317 315 314 312 310 308 306 304 302 300 298 296 294 292 290 288 286 285 283 281 279 277 275 273 271 269 267 265 264 263 263 262 262 262 262 261 261 261 261 261 261 260 260 260 259 259 259 258 257 257 256 255 255 255 255 255 255 254 253 251 247 243 239 237 236 234 232 231 230 229 228 227 226 226 225 225 224 224 223 223 224 224 224 224 224 224 223
331 330 330 329 329 328 328 327 326 326 325 325 324 323 322 321 320 318 317 315 313 311 309 307 304 302 300 298 295 293 291 289 286 285 283 281 279 277 276 274 271 269 268 266 264 263 263 262 262 261 261 261 261 261 261 261 261 260 260 260 260 260 259 259 258 257 256 255 255 254 254 254 254 254 253 252 249 245 241 239 237 236 234 232 231 230 228 227 227 226 226 225 224 224 223 223 223 224 224 224 224 224 223
331 331 331 330 330 329 329 328 328 327 327 327 326 326 325 324 323 322 321 319 318 316 314 311 309 306 304 302 299 297 294 292 289 286 283 281 279 277 275 273 271 269 268 266 265 264 263 262 261 261 261 261 261 261 261 261 261 261 261 260 260 260 260 259 258 257 256 255 255 254 254 254 254 254 253 253 251 248 244 241 239 237 235 233 232 230 229 228 227 226 226 225 225 224 223 223 223 223 223 223 224 224 224
332 332 332 331 331 330 330 330 329 329 329 329 329 329 329 328 327 326 325 323 322 321 319 316 314 312 310 307 305 302 299 297 293 290 287 283 280 277 275 273 271 269 268 266 265 264 263 262 261 261 260 261 261 260 260 260 260 260 260 260 260 260 260 260 259 258 257 256 255 254 254 254 253 253 253 253 252 250 247 243 240 238 237 235 233 231 230 229 228 227 226 226 225 225 224 223 223 223 223 223 223 223 223
333 333 333 332 332 332 331 331 331 331 331 332 332 332 332 331 330 329 328 327 325 324 323 321 319 317 314 312 310 308 305 302 299 295 292 288 284 280 277 274 271 269 267 266 265 264 263 261 261 260 260 260 260 260 260 260 260 260 260 260 260 260 260 260 259 259 257 256 255 254 254 253 253 253 253 253 253 252 250 246 243 240 238 236 234 233 231 230 228 227 227 226 225 225 224 224 223 223 223 223 223 223 223
334 334 334 333 333 333 333 333 333 333 333 334 334 334 333 333 332 330 329 328 327 326 325 323 321 320 318 316 314 312 309 307 304 301 297 293 289 284 280 276 273 269 267 265 264 263 262 261 260 260 259 259 259 259 259 259 259 259 260 260 260 260 260 260 260 259 258 257 256 254 254 253 253 253 253 253 253 252 251 248 245 242 239 238 236 234 232 230 229 228 227 226 226 225 225 224 224 223 223 223 223 223 223
336 335 335 334 334 334 334 334 334 334 335 335 335 335 334 333 332 330 329 328 327 326 324 323 322 321 319 318 316 314 311 310 307 304 301 298 294 290 285 280 276 271 268 266 264 263 261 260 260 259 259 258 258 258 258 258 258 259 259 260 260 260 260 260 260 259 259 258 256 255 254 253 252 252 252 252 252 252 251 250 247 244 241 239 237 236 234 232 230 229 228 227 226 225 225 224 224 223 223 223 223 223 223
337 336 336 336 335 335 335 335 335 335 336 336 336 335 334 333 332 330 329 328 326 325 324 323 321 320 319 317 316 314 312 310 308 306 303 301 298 294 290 286 280 275 271 267 264 262 261 260 259 259 258 258 258 258 257 257 257 258 259 259 259 259 260 260 259 259 259 258 257 256 255 253 253 252 252 252 252 252 251 250 248 246 243 240 239 237 235 233 231 230 228 227 226 225 225 224 224 224 223 223 222 222 222
338 337 337 336 336 336 336 336 336 336 336 336 336 335 334 333 332 330 329 327 326 325 323 322 320 319 317 316 315 313 311 310 308 306 304 302 299 296 293 290 285 280 275 269 265 262 260 259 259 258 258 257 257 256 256 256 257 257 258 258 258 259 259 259 259 259 259 259 258 257 256 254 253 252 252 252 251 251 251 250 249 247 244 241 240 238 237 235 232 230 229 228 227 226 225 224 224 224 223 223 222 222 222
338 338 338 337 337 337 337 337 337 337 337 336 336 335 334 333 332 330 329 327 326 324 322 321 319 318 317 316 314 313 311 310 308 306 304 302 299 297 294 292 289 285 279 274 268 263 260 259 258 258 257 257 257 256 255 256 256 257 257 257 258 258 258 258 258 259 259 259 258 258 256 255 254 253 252 251 251 251 250 249 248 247 245 243 241 239 238 236 234 232 230 228 227 226 225 225 224 224 223 223 223 222 222
339 339 338 338 338 338 338 337 337 337 337 336 335 335 333 333 332 330 329 327 326 324 322 320 319 318 317 316 315 313 312 310 308 306 304 301 299 296 294 292 290 287 284 278 272 266 261 259 257 257 257 257 256 256 255 255 255 256 256 256 257 257 257 257 257 258 259 259 258 258 257 256 255 253 252 251 251 250 250 249 248 247 245 243 241 240 238 237 235 233 231 229 228 227 226 225 224 224 224 223 223 223 222
340 339 339 339 339 339 338 338 337 337 336 335 335 334 333 333 332 330 329 327 326 324 323 321 320 318 317 316 315 314 313 311 309 307 304 301 299 296 294 292 290 288 286 281 276 270 264 259 257 257 256 256 256 256 256 255 255 255 255 255 255 255 255 256 257 258 258 258 258 258 257 257 256 254 253 251 251 250 249 248 247 246 245 243 242 240 239 238 236 234 232 230 229 227 226 225 225 224 224 224 224 223 223
341 340 340 339 339 339 338 338 337 336 335 335 335 334 334 333 332 331 330 329 327 326 324 323 322 320 319 317 316 316 315 313 311 309 306 302 299 296 294 291 290 288 286 284 280 274 267 262 258 256 256 256 256 256 256 255 255 254 254 253 253 253 254 255 256 257 257 258 258 258 258 257 256 255 253 252 251 250 249 248 247 246 245 243 242 240 239 238 237 236 233 231 229 228 227 226 225 225 224 224 224 224 223
341 340 340 339 339 339 338 337 336 335 335 335 335 335 335 335 334 333 332 330 329 328 326 325 324 323 322 320 320 319 318 317 315 313 310 305 301 297 294 292 290 288 286 285 282 278 272 265 260 257 257 257 257 256 256 255 253 252 251 251 251 252 254 255 256 256 256 257 257 258 258 257 256 255 254 253 251 250 249 248 247 246 245 243 242 240 239 239 238 237 235 232 230 229 228 226 226 225 224 224 224 224 223
341 340 340 339 339 338 337 336 336 336 336 336 337 337 337 336 335 334 333 332 331 330 328 327 326 326 325 325 324 323 322 321 319 317 314 311 307 301 296 293 290 288 286 284 283 280 276 270 264 260 259 258 256 254 252 251 249 249 249 249 251 252 253 254 254 255 255 256 257 257 257 257 256 255 254 253 252 251 250 249 248 247 245 243 241 240 239 238 238 238 236 234 232 230 228 227 226 225 225 224 224 223 223
341 340 339 339 338 338 337 337 337 337 338 338 339 338 338 337 336 336 335 333 332 331 331 330 329 329 329 329 328 327 326 324 323 321 319 316 314 311 306 300 295 291 289 286 284 283 281 275 269 264 260 256 251 248 246 246 246 247 248 249 250 251 252 252 253 254 255 256 256 257 257 257 256 256 255 254 253 252 251 250 249 247 245 243 241 239 238 238 238 238 237 235 233 231 229 228 227 226 225 224 224 224 223
340 339 339 338 338 337 338 338 339 339 340 340 340 339 339 338 338 337 336 336 335 334 334 333 333 332 332 331 330 329 328 326 325 323 321 319 318 316 313 309 304 298 292 286 284 283 283 275 270 263 251 246 244 243 244 244 245 246 248 248 249 249 250 251 253 254 254 255 255 256 256 256 256 255 255 254 253 252 251 250 249 248 246 243 241 238 237 236 237 237 238 237 235 232 230 229 227 226 226 225 225 224 224
340 339 338 337 337 338 339 340 342 343 342 342 341 340 340 340 339 339 338 338 338 338 338 337 336 335 334 332 331 329 328 327 326 324 322 320 318 316 314 312 309 305 300 294 286 278 261 227 225 236 238 241 241 242 242 243 243 245 246 247 248 249 250 251 252 253 254 254 255 255 255 255 255 255 255 254 253 252 252 251 250 249 247 244 241 238 236 235 235 236 237 237 236 234 231 229 228 227 226 225 225 225 224
339 338 337 337 337 339 340 343 345 345 344 343 342 342 342 342 342 342 342 342 342 341 341 340 339 337 335 333 331 329 328 327 326 325 324 322 320 318 316 315 313 311 309 307 299 282 244 214 207 211 220 233 238 239 239 240 241 243 244 246 247 248 249 250 252 252 253 254 254 254 254 255 255 255 255 254 253 252 252 251 250 249 248 246 242 239 236 234 234 235 236 237 237 235 233 230 229 228 227 226 225 225 224
339 337 337 337 338 340 342 346 348 348 346 344 343 343 343 344 344 345 345 345 345 344 343 342 341 339 336 333 331 329 328 327 327 326 325 324 322 321 319 316 313 311 310 309 307 298 271 239 218 210 211 223 232 236 238 239 241 242 243 245 246 247 249 250 251 252 252 253 253 253 254 254 254 254 254 253 253 252 252 251 251 250 249 247 244 240 236 233 232 233 235 236 237 236 234 232 230 228 227 226 225 225 224
337 336 336 337 339 342 345 348 350 349 347 346 345 345 345 347 348 348 347 347 347 346 345 344 343 341 338 333 330 329 328 328 328 328 326 325 324 322 320 317 314 312 310 310 310 307 295 269 237 220 215 221 228 234 237 239 240 241 242 243 244 246 247 248 249 250 251 252 253 253 254 254 254 254 253 253 252 252 252 252 251 251 250 249 246 242 237 233 231 231 233 235 237 237 235 233 231 229 228 227 226 225 224
336 336 336 338 341 344 347 350 352 351 349 348 347 347 348 349 350 349 349 348 348 347 346 345 344 343 340 335 331 329 329 329 330 329 327 326 324 323 321 318 316 315 314 313 313 311 308 295 264 237 224 222 228 234 237 238 239 240 240 241 242 244 245 247 248 250 251 252 253 254 254 254 254 253 253 252 252 252 251 251 251 251 251 250 247 243 239 234 231 230 232 233 235 236 236 234 232 230 228 227 226 225 224
335 335 336 338 342 346 349 351 353 352 351 350 348 348 349 351 351 351 350 349 349 348 348 346 346 345 343 339 335 331 330 330 331 331 329 327 326 325 323 319 316 313 310 309 310 312 313 306 288 264 239 227 228 236 240 240 239 239 240 240 242 243 245 246 248 250 251 252 253 254 254 254 254 253 252 252 252 251 251 251 251 251 251 250 248 245 240 235 232 230 230 232 234 236 236 235 232 230 228 227 226 225 224
334 334 336 339 343 347 350 352 353 353 353 351 350 349 351 353 353 353 352 351 350 350 349 348 347 347 346 344 340 336 334 333 333 334 333 332 331 329 326 322 318 313 310 308 308 311 312 309 300 286 267 239 230 233 240 240 240 239 239 240 242 243 244 246 248 250 251 252 253 253 253 254 254 253 253 252 251 251 250 250 250 251 251 251 249 247 242 237 233 230 230 231 233 235 235 235 233 231 229 227 226 225 224
334 334 336 339 343 346 349 351 353 354 354 352 351 350 352 355 356 355 354 353 353 352 351 349 349 348 348 347 346 343 340 339 339 339 338 338 337 335 331 326 321 316 311 308 307 307 308 305 303 301 292 263 241 232 234 237 239 239 238 239 240 242 244 245 247 249 250 251 252 253 254 254 254 254 253 253 252 251 250 250 250 251 251 251 250 248 244 239 234 231 230 231 233 234 235 235 233 232 230 228 226 225 224
333 334 336 339 343 345 347 349 352 354 354 353 352 352 354 357 358 358 357 356 356 355 354 352 351 350 350 349 349 347 345 345 346 346 345 342 340 339 336 331 326 321 315 311 308 307 306 304 306 307 301 285 266 243 228 231 234 236 236 237 238 240 242 243 245 247 249 251 252 253 254 254 254 254 254 253 252 251 250 250 250 250 251 251 250 249 245 241 235 232 230 231 233 234 235 235 234 232 230 229 227 226 225
332 333 336 338 341 343 345 348 351 353 354 353 352 352 354 358 360 1 0 359 359 359 358 356 354 353 352 351 350 350 349 349 349 350 348 344 341 340 339 335 330 326 322 318 314 311 309 308 308 307 304 301 288 262 238 228 227 231 234 236 237 238 239 241 243 246 247 249 251 252 253 254 254 254 254 254 253 252 251 251 251 251 251 251 250 249 246 242 237 232 231 232 233 234 234 234 233 232 231 229 228 227 226